Weather in Tyurino

Russia / Astrakhan Oblast     46°26′48″N   48°37′33″E
temp.,
°C
wind,
m/s
gust,
m/s
humid.,
%
clouds,
%
prec.,
mm/h
press.,
hPa
HPBL,
m
31 july, sat
sat3101:00+21sw22460 0.0 101211
04:00+20se22460 0.0 101111
07:00+23se24410 0.0 1012101
10:00+32s232032 0.0 10121352
13:00+36se551360 0.0 10103258
16:00+36se751250 0.0 10102260
19:00+32sse672619 0.0 1010523
22:00+24sse47594 0.0 1011116
1 august, sun
sun101:00+23s22640 0.0 101218
04:00+22ssw11665 0.0 101211
07:00+26ne11480 0.0 101258
10:00+34ene45225 0.0 10121205
13:00+38ese551156 0.0 10112665
16:00+38se66150 0.0 10102242
19:00+34se66220 0.0 1011563
22:00+26se45443 0.0 101258
2 august, mon
mon201:00+25sse33475 0.0 101222
04:00+24s124812 0.0 101211
07:00+28ene223216 0.0 101266
10:00+37ese45145 0.0 10131298
13:00+40se7595 0.0 10124079
16:00+39se759100 0.0 10114118
19:00+36se3412100 0.0 1011134
22:00+27s3330100 0.0 101128
3 august, tue
tue301:00+26sse222594 0.0 101111
04:00+25nw0023100 0.0 101111
07:00+30nne221779 0.0 101149
10:00+37e33105 0.0 10111036
13:00+41se5685 0.0 10104572
16:00+41sse7680 0.0 10094222
19:00+37s68120 0.0 1009595
22:00+28ssw44240 0.0 101049
4 august, wed
wed401:00+26sw33280 0.0 101026
04:00+25wsw33280 0.0 101017
07:00+28sw22220 0.0 101160
10:00+36s23120 0.0 1011987
13:00+41s4595 0.0 10093417
16:00+41s6695 0.0 10083653
19:00+37ssw34140 0.0 1009439
22:00+30nne611379 0.0 1011322